Glens Falls, NY

5:15 PM EDT on August 20, 2017 (GMT -0400)
Bennett Memorial

Weather History for KGFL - June, 2013

Change the Weather History Date:

Friday, June 14, 2013

  Actual Average Record
Temperature  
Mean Temperature 65 °F 64 °F  
Max Temperature 77 °F 76 °F 94 °F (1988)
Min Temperature 53 °F 52 °F 39 °F (1979)
Degree Days  
Heating Degree Days 0 3  
Month to date heating degree days 63 60  
Since 1 June heating degree days 63 60  
Since 1 July heating degree days 6999 7646  
Cooling Degree Days 0 2  
Month to date cooling degree days 21 21  
Year to date cooling degree days 54 33  
Since 1 June cooling degree days 21 21  
Growing Degree Days 16 (Base 50)    
Moisture  
Dew Point 52 °F    
Average Humidity 65    
Maximum Humidity 93    
Minimum Humidity 36    
Precipitation  
Precipitation 0.01 in 0.12 in 1.83 in (1998)
Month to date precipitation 3.98 1.66  
Year to date precipitation 15.91 16.15  
Sea Level Pressure  
Sea Level Pressure 29.76 in    
Wind  
Wind Speed 6 mph (NNW)    
Max Wind Speed 20 mph    
Max Gust Speed 25 mph    
Visibility 10 miles    
Events Thunderstorm    
T = Trace of Precipitation, MM = Missing Value Source: NWS Daily Summary

Daily Weather History Graph

Daily Weather History Graph

Search for Another Location

Airport or City:

Trip Planner

Search our weather history database for the weather conditions in past years. The results will help you decide how hot, cold, wet, or windy it might be!

Date:

Astronomy

Jun. 14, 2013 Rise Set
Actual Time 5:13 AM EDT 8:36 PM EDT
Civil Twilight 4:37 AM EDT 9:11 PM EDT
Nautical Twilight 3:51 AM EDT 9:58 PM EDT
Astronomical Twilight 2:53 AM EDT 10:56 PM EDT
Moon 10:54 AM EDT (6/14) No Moon Set
Length of Visible Light 16h 34m
Length of Day
15h 22m
Waxing Crescent, 30% of the Moon is Illuminated
Jun 14
Waxing Crescent
Jun 16
First Quarter
Jun 23
Full
Jun 30
Last Quarter
Jul 8
New

Hourly Weather History & Observations

Time (EDT) Temp. Dew Point Humidity Pressure Visibility Wind Dir Wind Speed Gust Speed Precip Events Conditions
12:53 AM 55.0 °F 53.1 °F 93% 29.72 in 10.0 mi NNW 3.5 mph - N/A   Overcast
1:53 AM 55.0 °F 53.1 °F 93% 29.71 in 10.0 mi NNW 4.6 mph - N/A   Partly Cloudy
2:53 AM 55.9 °F 53.1 °F 90% 29.70 in 10.0 mi Calm Calm - N/A   Mostly Cloudy
3:53 AM 55.0 °F 53.1 °F 93% 29.72 in 10.0 mi Calm Calm - N/A   Overcast
4:53 AM 54.0 °F 52.0 °F 93% 29.73 in 10.0 mi Calm Calm - N/A   Scattered Clouds
5:53 AM 55.0 °F 53.1 °F 93% 29.72 in 10.0 mi Calm Calm - N/A   Mostly Cloudy
6:53 AM 55.9 °F 53.1 °F 90% 29.73 in 10.0 mi NNW 3.5 mph - N/A   Mostly Cloudy
7:53 AM 59.0 °F 53.1 °F 81% 29.73 in 10.0 mi NNW 4.6 mph - N/A   Mostly Cloudy
8:53 AM 61.0 °F 54.0 °F 78% 29.75 in 10.0 mi NNW 5.8 mph - N/A   Clear
9:53 AM 62.1 °F 55.0 °F 78% 29.75 in 10.0 mi Variable 3.5 mph - N/A   Clear
10:53 AM 64.9 °F 55.0 °F 70% 29.76 in 10.0 mi ENE 5.8 mph - 0.01 in   Clear
11:53 AM 69.1 °F 55.9 °F 63% 29.75 in 10.0 mi Calm Calm - N/A   Clear
12:53 PM 73.9 °F 50.0 °F 43% 29.75 in 10.0 mi NNE 16.1 mph 19.6 mph N/A   Scattered Clouds
1:53 PM 75.9 °F 50.0 °F 40% 29.74 in 10.0 mi NE 10.4 mph - N/A   Partly Cloudy
2:53 PM 75.9 °F 48.9 °F 38% 29.73 in 10.0 mi ENE 11.5 mph - N/A   Scattered Clouds
3:53 PM 77.0 °F 48.9 °F 37% 29.74 in 10.0 mi NE 8.1 mph - N/A   Scattered Clouds
4:53 PM 75.9 °F 50.0 °F 40% 29.75 in 10.0 mi North 10.4 mph - N/A   Partly Cloudy
5:53 PM 77.0 °F 51.1 °F 40% 29.75 in 10.0 mi NNW 6.9 mph - N/A   Mostly Cloudy
6:43 PM 73.4 °F 51.8 °F 47% 29.78 in 10.0 mi NW 18.4 mph 25.3 mph N/A Thunderstorm Mostly Cloudy
6:53 PM 70.0 °F 52.0 °F 53% 29.78 in 10.0 mi WNW 11.5 mph 23.0 mph N/A   Mostly Cloudy
7:18 PM 69.8 °F 51.8 °F 53% 29.79 in 10.0 mi NW 6.9 mph - N/A Thunderstorm Scattered Clouds
7:34 PM 66.2 °F 55.4 °F 68% 29.80 in 10.0 mi WNW 8.1 mph - N/A   Partly Cloudy
7:53 PM 64.9 °F 57.0 °F 75% 29.81 in 10.0 mi WNW 6.9 mph - N/A   Partly Cloudy
8:53 PM 66.0 °F 51.1 °F 59% 29.82 in 10.0 mi NW 9.2 mph - N/A   Clear
9:53 PM 64.9 °F 52.0 °F 63% 29.83 in 10.0 mi WNW 6.9 mph - N/A   Clear
10:53 PM 64.9 °F 50.0 °F 58% 29.84 in 10.0 mi NW 9.2 mph 18.4 mph N/A   Clear
11:53 PM 62.1 °F 48.0 °F 60% 29.86 in 10.0 mi East 5.8 mph - N/A   Clear